CW3065 Weather Reports


time (UTC)temp
C
wind
direction
speed
KPH
gust
KPH
rain 1hr
cm
rain 24hr
cm
rain mn
cm
humidity
%
barometer
mb
20260510002005 17 2 3.2 16.1 0.00 0.00 0.00 20 1004.3
20260510001504 16 224 11.3 19.3 0.00 0.00 0.00 18 1004.3
20260510001005 16 232 11.3 24.1 0.00 0.00 0.00 18 1004.3
20260510000504 16 260 8.0 25.7 0.00 0.00 0.00 19 1004.3
20260509235504 16 222 16.1 24.1 0.00 0.00 0.00 16 1004.1
20260509235005 17 220 8.0 20.9 0.00 0.00 0.00 18 1004.1
20260509234504 17 253 9.7 27.4 0.00 0.00 0.00 19 1004.2
20260509234004 17 242 14.5 32.2 0.00 0.00 0.00 18 1004.1
20260509233504 17 255 12.9 25.7 0.00 0.00 0.00 17 1004.1
20260509233004 17 251 8.0 25.7 0.00 0.00 0.00 17 1004.0
20260509232504 18 260 14.5 29.0 0.00 0.00 0.00 17 1003.8
20260509232004 19 259 11.3 25.7 0.00 0.00 0.00 16 1003.6
20260509231504 18 287 8.0 20.9 0.00 0.00 0.00 17 1003.6
20260509231004 18 260 9.7 32.2 0.00 0.00 0.00 18 1003.6
20260509230504 18 295 17.7 29.0 0.00 0.00 0.00 17 1003.6
20260509230004 18 235 17.7 29.0 0.00 0.00 0.00 16 1003.6
20260509225504 19 270 4.8 24.1 0.00 0.00 0.00 15 1003.5
20260509225004 19 288 19.3 37.0 0.00 0.00 0.00 16 1003.4
20260509224504 19 304 16.1 35.4 0.00 0.00 0.00 16 1003.2
20260509224005 18 285 16.1 32.2 0.00 0.00 0.00 15 1003.4
20260509223504 18 254 19.3 37.0 0.00 0.00 0.00 17 1003.2
20260509223005 18 257 20.9 35.4 0.00 0.00 0.00 15 1003.0
20260509222504 18 261 17.7 37.0 0.00 0.00 0.00 15 1003.2
20260509222004 18 289 14.5 32.2 0.00 0.00 0.00 15 1003.0
20260509221505 18 248 11.3 25.7 0.00 0.00 0.00 16 1003.0
20260509220504 18 235 9.7 24.1 0.00 0.00 0.00 18 1003.1
20260509220004 18 274 16.1 33.8 0.00 0.00 0.00 18 1003.5
20260509215504 18 255 12.9 35.4 0.00 0.00 0.00 17 1003.6
20260509215004 18 249 19.3 35.4 0.00 0.00 0.00 15 1003.6
20260509214004 18 245 20.9 33.8 0.00 0.00 0.00 17 1003.5
20260509213005 19 230 12.9 22.5 0.00 0.00 0.00 16 1003.5
20260509212504 18 227 9.7 33.8 0.00 0.00 0.00 19 1003.5
20260509212004 18 228 6.4 19.3 0.00 0.00 0.00 17 1003.5
20260509211505 18 182 6.4 29.0 0.00 0.00 0.00 21 1003.6
20260509211004 18 227 14.5 27.4 0.00 0.00 0.00 17 1003.6
20260509210004 18 216 9.7 25.7 0.00 0.00 0.00 14 1003.6
20260509205504 18 269 11.3 27.4 0.00 0.00 0.00 19 1003.7
20260509205004 18 283 12.9 27.4 0.00 0.00 0.00 17 1003.6
20260509204504 18 251 11.3 22.5 0.00 0.00 0.00 16 1003.6
20260509204004 18 314 8.0 25.7 0.00 0.00 0.00 17 1003.6
20260509203504 18 249 14.5 25.7 0.00 0.00 0.00 18 1003.6
20260509202004 20 254 4.8 24.1 0.00 0.00 0.00 17 1003.5
20260509201504 20 284 16.1 32.2 0.00 0.00 0.00 17 1003.6
20260509201005 19 260 6.4 19.3 0.00 0.00 0.00 21 1003.5
20260509200004 19 311 16.1 25.7 0.00 0.00 0.00 20 1003.5
20260509195505 18 341 4.8 11.3 0.00 0.00 0.00 19 1003.8
20260509195004 18 253 9.7 22.5 0.00 0.00 0.00 18 1004.3
20260509194504 18 277 14.5 32.2 0.00 0.00 0.00 18 1004.5
20260509194004 18 256 19.3 32.2 0.00 0.00 0.00 19 1004.4
20260509193504 17 237 14.5 32.2 0.00 0.00 0.00 19 1004.5
20260509193004 18 279 16.1 27.4 0.00 0.00 0.00 18 1004.3
20260509192504 17 257 16.1 32.2 0.00 0.00 0.00 18 1004.1
20260509192004 17 199 16.1 27.4 0.00 0.00 0.00 20 1004.2
20260509191504 17 238 9.7 25.7 0.00 0.00 0.00 19 1004.3
20260509191004 17 246 19.3 32.2 0.00 0.00 0.00 18 1004.4
20260509190504 17 332 14.5 27.4 0.00 0.00 0.00 17 1004.2
20260509190005 17 275 14.5 33.8 0.00 0.00 0.00 20 1004.2
20260509185504 17 264 11.3 24.1 0.00 0.00 0.00 18 1004.2
20260509185004 17 270 9.7 25.7 0.00 0.00 0.00 19 1004.1
20260509184504 17 269 9.7 24.1 0.00 0.00 0.00 18 1004.3
20260509184004 17 225 12.9 22.5 0.00 0.00 0.00 17 1004.2
20260509183504 16 224 1.6 22.5 0.00 0.00 0.00 20 1004.3
20260509183004 16 231 19.3 38.6 0.00 0.00 0.00 18 1004.5
20260509182504 16 213 20.9 33.8 0.00 0.00 0.00 19 1004.3
20260509182004 16 246 16.1 33.8 0.00 0.00 0.00 20 1004.2
20260509180504 16 236 9.7 16.1 0.00 0.00 0.00 20 1004.3
20260509180004 17 242 8.0 19.3 0.00 0.00 0.00 18 1004.2
20260509175504 16 206 14.5 25.7 0.00 0.00 0.00 21 1004.2
20260509174505 16 259 8.0 20.9 0.00 0.00 0.00 20 1004.3
20260509174004 16 215 9.7 19.3 0.00 0.00 0.00 20 1004.4
20260509173505 16 251 14.5 27.4 0.00 0.00 0.00 20 1004.6
20260509172504 16 259 14.5 27.4 0.00 0.00 0.00 20 1004.6
20260509171504 15 248 14.5 29.0 0.00 0.00 0.00 23 1004.5
20260509171004 15 247 20.9 32.2 0.00 0.00 0.00 18 1004.4
20260509170505 15 240 14.5 29.0 0.00 0.00 0.00 23 1004.2
20260509165504 15 245 20.9 32.2 0.00 0.00 0.00 20 1004.4
20260509165004 15 243 17.7 32.2 0.00 0.00 0.00 22 1004.6
20260509164505 15 255 12.9 24.1 0.00 0.00 0.00 21 1004.7
20260509164004 15 203 16.1 32.2 0.00 0.00 0.00 21 1004.6
20260509163505 15 252 14.5 32.2 0.00 0.00 0.00 20 1004.5
20260509163005 15 221 14.5 24.1 0.00 0.00 0.00 20 1004.5
20260509162504 15 223 14.5 25.7 0.00 0.00 0.00 22 1004.5
20260509162004 15 225 9.7 22.5 0.00 0.00 0.00 22 1004.6
20260509161505 15 206 8.0 19.3 0.00 0.00 0.00 22 1004.6
20260509161004 15 250 9.7 24.1 0.00 0.00 0.00 22 1004.6
20260509160504 15 249 14.5 22.5 0.00 0.00 0.00 20 1004.6
20260509155504 15 240 8.0 16.1 0.00 0.00 0.00 21 1004.5
20260509155004 15 277 9.7 20.9 0.00 0.00 0.00 20 1004.4
20260509154505 15 225 8.0 16.1 0.00 0.00 0.00 22 1004.3
20260509154004 15 246 8.0 19.3 0.00 0.00 0.00 22 1004.2
20260509153504 15 219 4.8 19.3 0.00 0.00 0.00 20 1004.2
20260509152504 14 236 3.2 16.1 0.00 0.00 0.00 21 1004.6
20260509152004 14 248 9.7 20.9 0.00 0.00 0.00 21 1004.5
20260509151505 14 242 4.8 9.7 0.00 0.00 0.00 22 1004.6
20260509151004 14 299 4.8 14.5 0.00 0.00 0.00 22 1004.7
20260509150505 14 270 4.8 16.1 0.00 0.00 0.00 23 1004.8
20260509150004 13 291 8.0 16.1 0.00 0.00 0.00 25 1004.6
20260509145004 13 203 11.3 22.5 0.00 0.00 0.00 23 1004.7
20260509144504 13 199 11.3 19.3 0.00 0.00 0.00 26 1004.6
20260509144004 13 199 8.0 16.1 0.00 0.00 0.00 23 1004.7
20260509143504 13 237 9.7 20.9 0.00 0.00 0.00 22 1004.8
20260509143004 13 253 3.2 11.3 0.00 0.00 0.00 27 1004.7
20260509142504 13 85 4.8 9.7 0.00 0.00 0.00 27 1004.5
20260509142005 13 167 1.6 3.2 0.00 0.00 0.00 27 1004.7
20260509141504 13 280 0.0 3.2 0.00 0.00 0.00 26 1004.7
20260509141004 12 261 1.6 9.7 0.00 0.00 0.00 26 1004.7
20260509140505 12 243 4.8 16.1 0.00 0.00 0.00 29 1004.6
20260509140005 12 257 4.8 20.9 0.00 0.00 0.00 31 1004.7
20260509135505 12 249 3.2 19.3 0.00 0.00 0.00 31 1004.9
20260509134504 11 279 6.4 11.3 0.00 0.00 0.00 33 1005.2
20260509134004 11 257 9.7 24.1 0.00 0.00 0.00 31 1005.1
20260509133504 11 269 11.3 20.9 0.00 0.00 0.00 33 1005.2
20260509133005 11 287 3.2 9.7 0.00 0.00 0.00 35 1004.9
20260509132504 10 282 8.0 9.7 0.00 0.00 0.00 34 1004.8
20260509132004 10 265 6.4 11.3 0.00 0.00 0.00 37 1004.8
20260509131504 10 237 8.0 19.3 0.00 0.00 0.00 38 1004.8
20260509131005 10 252 4.8 14.5 0.00 0.00 0.00 38 1004.7
20260509130504 9 230 8.0 14.5 0.00 0.00 0.00 40 1004.7
20260509130004 8 253 6.4 19.3 0.00 0.00 0.00 39 1004.7
20260509125005 9 254 4.8 8.0 0.00 0.00 0.00 39 1004.5
20260509124504 9 254 8.0 14.5 0.00 0.00 0.00 38 1004.5
20260509123504 10 240 8.0 20.9 0.00 0.00 0.00 37 1004.3
20260509122503 10 258 6.4 12.9 0.00 0.00 0.00 37 1004.1
20260509121504 10 270 8.0 19.3 0.00 0.00 0.00 36 1004.0
20260509121004 10 248 8.0 19.3 0.00 0.00 0.00 35 1004.1
20260509120005 10 276 25.7 45.1 0.00 0.00 0.00 36 1003.7
20260509115504 9 263 12.9 19.3 0.00 0.00 0.00 40 1003.7
20260509115004 9 244 14.5 27.4 0.00 0.00 0.00 40 1003.9
20260509114504 9 243 12.9 33.8 0.00 0.00 0.00 41 1003.9
20260509113504 10 245 14.5 27.4 0.00 0.00 0.00 40 1003.7
20260509113004 10 250 16.1 27.4 0.00 0.00 0.00 40 1003.7
20260509112504 10 259 22.5 41.8 0.00 0.00 0.00 38 1003.5
20260509112004 10 248 11.3 29.0 0.00 0.00 0.00 39 1003.6
20260509111004 10 245 20.9 46.7 0.00 0.00 0.00 39 1003.3
20260509105004 10 242 19.3 32.2 0.00 0.00 0.00 41 1003.6
20260509104504 10 246 11.3 32.2 0.00 0.00 0.00 42 1003.8
20260509104004 10 232 11.3 22.5 0.00 0.00 0.00 42 1003.9
20260509103504 9 257 11.3 22.5 0.00 0.00 0.00 42 1004.1
20260509103004 9 236 9.7 22.5 0.00 0.00 0.00 43 1004.2
20260509102504 9 240 11.3 25.7 0.00 0.00 0.00 43 1003.8
20260509101504 10 254 11.3 25.7 0.00 0.00 0.00 42 1004.1
20260509101004 10 269 16.1 29.0 0.00 0.00 0.00 42 1004.0
20260509100505 10 244 11.3 24.1 0.00 0.00 0.00 41 1003.8
20260509100005 10 253 17.7 29.0 0.00 0.00 0.00 40 1003.9
20260509095504 10 254 14.5 27.4 0.00 0.00 0.00 41 1004.0
20260509095004 10 249 19.3 33.8 0.00 0.00 0.00 41 1003.8
20260509094504 10 244 11.3 24.1 0.00 0.00 0.00 42 1003.9
20260509094004 10 259 20.9 35.4 0.00 0.00 0.00 41 1003.8
20260509093504 10 246 17.7 38.6 0.00 0.00 0.00 42 1003.8
20260509093004 10 250 14.5 22.5 0.00 0.00 0.00 42 1003.8
20260509092004 9 244 11.3 20.9 0.00 0.00 0.00 44 1004.3
20260509091504 8 236 11.3 19.3 0.00 0.00 0.00 46 1004.5
20260509091004 8 241 9.7 19.3 0.00 0.00 0.00 47 1004.7
20260509090504 8 241 11.3 22.5 0.00 0.00 0.00 48 1004.7
20260509085504 6 251 8.0 19.3 0.00 0.00 0.00 57 1004.7
20260509085005 3 243 11.3 20.9 0.00 0.00 0.00 69 1004.7
20260509084504 1 241 9.7 22.5 0.00 0.00 0.00 82 1004.8
20260509083504 1 336 1.6 4.8 0.00 0.00 0.00 87 1004.7
20260509083004 1 317 1.6 8.0 0.00 0.00 0.00 88 1004.7
20260509082004 1 177 4.8 8.0 0.00 0.00 0.00 88 1004.7
20260509081004 1 177 1.6 4.8 0.00 0.00 0.00 87 1004.8
20260509080505 1 177 1.6 4.8 0.00 0.00 0.00 87 1004.8
20260509080004 1 288 1.6 4.8 0.00 0.00 0.00 87 1004.8
20260509075504 1 288 0.0 3.2 0.00 0.00 0.00 87 1004.8
20260509073504 2 288 4.8 4.8 0.00 0.00 0.00 86 1005.3
20260509073004 2 288 1.6 4.8 0.00 0.00 0.00 86 1005.4
20260509072504 2 288 3.2 4.8 0.00 0.00 0.00 86 1005.3
20260509071504 2 288 3.2 8.0 0.00 0.00 0.00 86 1005.4
20260509071004 2 321 3.2 4.8 0.00 0.00 0.00 85 1005.6
20260509070504 2 321 1.6 4.8 0.00 0.00 0.00 85 1005.6
20260509070005 2 321 0.0 3.2 0.00 0.00 0.00 85 1005.8
20260509065504 2 321 0.0 1.6 0.00 0.00 0.00 85 1005.8
20260509065004 2 321 4.8 8.0 0.00 0.00 0.00 84 1005.8
20260509064504 2 321 3.2 4.8 0.00 0.00 0.00 84 1005.8
20260509064004 2 321 1.6 3.2 0.00 0.00 0.00 84 1005.7
20260509063004 3 321 6.4 9.7 0.00 0.00 0.00 82 1005.8
20260509062504 3 215 3.2 4.8 0.00 0.00 0.00 82 1005.9
20260509062004 3 215 3.2 3.2 0.00 0.00 0.00 82 1005.9
20260509061504 3 215 1.6 4.8 0.00 0.00 0.00 81 1006.0
20260509060504 3 215 1.6 4.8 0.00 0.00 0.00 81 1006.0
20260509055504 3 215 1.6 3.2 0.00 0.00 0.00 80 1006.0
20260509055004 3 215 3.2 4.8 0.00 0.00 0.00 80 1006.2
20260509054504 3 215 3.2 4.8 0.00 0.00 0.00 79 1006.5
20260509054004 4 215 3.2 4.8 0.00 0.00 0.00 78 1006.5
20260509053504 4 215 1.6 4.8 0.00 0.00 0.00 77 1006.6
20260509053004 4 215 0.0 1.6 0.00 0.00 0.00 76 1006.6
20260509052004 5 215 1.6 4.8 0.00 0.00 0.00 76 1006.7
20260509051004 5 215 3.2 4.8 0.00 0.00 0.00 77 1006.7
20260509050504 5 215 1.6 4.8 0.00 0.00 0.00 79 1006.7
20260509045504 5 21 1.6 3.2 0.00 0.00 0.00 79 1006.7
20260509045004 5 21 1.6 3.2 0.00 0.00 0.00 79 1006.7
20260509044504 5 21 0.0 1.6 0.00 0.00 0.00 79 1006.7
20260509043004 5 218 0.0 3.2 0.00 0.00 0.00 77 1007.1
20260509042504 5 218 0.0 3.2 0.00 0.00 0.00 77 1007.1
20260509042004 5 218 1.6 4.8 0.00 0.03 0.00 77 1007.1
20260509041504 5 218 4.8 8.0 0.00 0.03 0.00 77 1006.9
20260509041004 5 18 0.0 3.2 0.00 0.03 0.00 77 1006.8
20260509040504 6 18 1.6 3.2 0.00 0.03 0.00 77 1006.7
20260509040005 6 18 1.6 3.2 0.00 0.03 0.00 76 1007.0
20260509035004 6 18 3.2 4.8 0.00 0.03 0.00 76 1006.9
20260509034504 6 18 0.0 0.0 0.00 0.03 0.00 75 1006.8
20260509033504 6 18 4.8 4.8 0.00 0.03 0.00 74 1006.8
20260509033004 6 18 4.8 4.8 0.00 0.03 0.00 73 1006.8
20260509032504 6 18 3.2 4.8 0.00 0.03 0.00 73 1006.7
20260509032004 7 18 3.2 4.8 0.00 0.03 0.00 72 1006.7
20260509031505 7 18 3.2 4.8 0.00 0.03 0.00 73 1006.7
20260509031004 7 18 1.6 3.2 0.00 0.03 0.00 73 1006.6
20260509030504 7 18 4.8 4.8 0.00 0.03 0.00 73 1006.6
20260509030004 7 18 1.6 4.8 0.00 0.03 0.00 72 1006.5
20260509025505 7 18 3.2 4.8 0.00 0.03 0.00 71 1006.6
20260509024504 8 18 1.6 4.8 0.00 0.03 0.00 68 1006.6
20260509024005 8 18 4.8 8.0 0.00 0.03 0.00 68 1006.5
20260509023504 8 18 1.6 4.8 0.00 0.03 0.00 67 1006.6
20260509023004 8 18 1.6 4.8 0.00 0.03 0.00 66 1006.5
20260509022504 9 18 3.2 4.8 0.00 0.03 0.00 65 1006.5
20260509022004 10 18 6.4 8.0 0.00 0.03 0.00 63 1006.5
20260509021504 10 18 6.4 9.7 0.00 0.03 0.00 62 1006.4
20260509021004 10 7 4.8 11.3 0.00 0.03 0.00 60 1006.5
20260509020505 10 262 0.0 4.8 0.00 0.03 0.00 60 1006.5
20260509015503 11 250 0.0 3.2 0.00 0.03 0.00 59 1006.5
20260509015004 11 148 3.2 4.8 0.00 0.03 0.00 58 1006.5
20260509014504 11 148 1.6 4.8 0.00 0.03 0.00 58 1006.4
20260509014004 11 93 6.4 16.1 0.00 0.03 0.00 57 1006.4
20260509013504 11 129 8.0 12.9 0.00 0.03 0.00 57 1006.4
20260509013004 12 93 6.4 11.3 0.00 0.03 0.00 56 1006.4
20260509012504 12 31 8.0 16.1 0.00 0.03 0.00 56 1006.3
20260509012004 12 54 8.0 16.1 0.00 0.03 0.00 54 1006.2
20260509011504 12 351 6.4 11.3 0.00 0.03 0.00 53 1006.2
20260509011004 13 352 4.8 9.7 0.00 0.03 0.00 53 1006.1
20260509010505 13 75 9.7 19.3 0.00 0.03 0.00 52 1005.9
20260509010004 13 25 6.4 16.1 0.00 0.03 0.00 52 1006.0
20260509005004 13 344 3.2 9.7 0.00 0.03 0.00 51 1006.0
20260509004504 13 8 8.0 11.3 0.00 0.03 0.00 49 1005.9
20260509004005 13 22 9.7 12.9 0.00 0.03 0.00 50 1005.9
20260509003504 14 17 8.0 14.5 0.00 0.03 0.00 48 1005.9
20260509003004 14 77 8.0 14.5 0.00 0.03 0.00 48 1005.8
20260509002504 14 44 4.8 9.7 0.00 0.03 0.00 48 1005.9